Regional Weather Roundup
Issued by NWS

Home | Current Version | Previous Version | Text Only | Print | Product List | Glossary On
Versions: 1 2 3 4 5 6 7 8 9 10 11 12 13 14 15 16 17 18 19 20 21 22 23 24 25 26 27 28 29 30 31 32 33 34 35 36 37 38 39 40 41 42 43 44 45 46 47 48 49 50
000
ASUS42 KFFC 250203
RWRGA
WEATHER ROUNDUP FOR GEORGIA
NATIONAL WEATHER SERVICE PEACHTREE CITY GA
1000 PM EDT SUN JUL 24 2016

NOTE: "FAIR" INDICATES FEW OR NO CLOUDS BELOW 12,000 FEET WITH NO
SIGNIFICANT WEATHER AND/OR OBSTRUCTIONS TO VISIBILITY.

* = USE WITH CAUTION. THE STATIONS MARKED WITH AN ASTERISK MAY NOT
REPORT WEATHER SUCH AS PRECIPITATION, FOG, OR THUNDER AND ARE NOT
QUALITY CONTROLLED BY NWS.

THE REMARK "TC" DENOTES TEMPERATURE READING IN DEGREES CELSIUS.

GAZ001>058-250300-
NORTH GEORGIA

CITY           SKY/WX    TMP DP  RH WIND       PRES   REMARKS
ATLANTA        MOCLDY    84  71  65 CALM      30.05R
ATHENS         PTCLDY    84  72  67 CALM      30.04R
CHAMBLEE       PTCLDY    79  70  74 CALM      30.06R
PEACHTREE CITY PTCLDY    80  70  71 CALM      30.06R
ROME           MOCLDY    85  72  65 CALM      30.02R HX  91
WEST ATLANTA   PTCLDY    82  69  64 S3        30.05R
CARTERSVILLE   CLOUDY    76  73  91 CALM      30.05R


CITY           SKY/WX    TMP DP  RH WIND       PRES   REMARKS
DALTON*        PTCLDY    77  77 100 CALM      30.05R
MARIETTA       PTCLDY    74  73  96 CALM      30.06R
KENNESAW*      CLEAR     75  70  83 CALM      30.02R
CANTON*        CLOUDY    79  63  57 CALM      30.08R
BLAIRSVILLE*     N/A    N/A N/A N/A MISG      30.12R
$$

GAZ059>098-102>109-250300-
CENTRAL GEORGIA

CITY           SKY/WX    TMP DP  RH WIND       PRES   REMARKS
AUGUSTA-BUSH   CLEAR     85  72  65 S8        30.01R HX  91
AUGUSTA-DANIEL PTCLDY    88  72  58 S9        30.04R HX  94
COLUMBUS       PTCLDY    89  68  49 W3        30.01R HX  93
MACON          CLEAR     81  78  91 W3        30.02R
ROBINS AFB     MOCLDY    82  76  84 SE1       30.01R


CITY           SKY/WX    TMP DP  RH WIND       PRES   REMARKS
LAGRANGE*      PTCLDY    83  74  75 NW8       30.05R HX  90
MILLEDGEVILLE* CLEAR     82  75  78 CALM      30.03R
$$

GAZ099>101-110>166-250300-
SOUTH GEORGIA

CITY           SKY/WX    TMP DP  RH WIND       PRES   REMARKS
SAVANNAH       CLEAR     80  73  79 S7        30.04R
VALDOSTA       CLOUDY    80  73  79 SE6       30.04R
ALMA           PTCLDY    76  72  87 CALM      30.03R
ST SIMONS      CLEAR     85  72  65 S9        30.04R HX  91
FT STEWART     CLEAR     77  74  91 SE1       30.01R
ALBANY         CLEAR     85  70  60 CALM      30.03R
HUNTER AFB     CLEAR     83  77  82 S5        30.02R HX  92
MOODY AFB      CLOUDY    76  73  91 S3        30.05R
BRUNSWICK      CLEAR     86  77  74 S5        30.05S HX  97


CITY           SKY/WX    TMP DP  RH WIND       PRES   REMARKS
BAINBRIDGE*    CLEAR     82  72  69 CALM      30.02R
MOULTRIE*      CLEAR     82  73  74 CALM      30.03R THUNDER
VIDALIA*       PTCLDY    82  70  65 CALM      30.04S
WAYCROSS*      CLEAR     80  77  92 CALM      30.04R
DOUGLAS*       MOCLDY    81  68  65 CALM      30.05R
$$



USA.gov is the U.S. government's official web portal to all federal, state and local government web resources and services.